CZ-11 DEB (45613 NORAD) Tracking and Keplerian Element Data

This shows tracking and keplerian element data for the satellite.

Feedback or suggestion? Click here.




ElementValue
Catalog45613
NameCZ-11 DEB
Epoch Orbit431
Epoch Day179.53772771
Epoch Year2020
RAAN345.9424
Inclination35.0311
Eccentricity0.0013676
Argument of Perigee210.1472
Mean Anonmoly149.8459
Mean Motion15.29878592
Decay Rate3.285E-05
L11 45613U 20032C 20179.53772771 .00003285 00000-0 11171-3 0 9996
L22 45613 35.0311 345.9424 0013676 210.1472 149.8459 15.29878592 4319

Live tracking and technical data element details for CZ-11 DEB (NORAD 45613). CZ-11 DEB can be tracked NOW for your location showing map with azimuth and elevation plus other details from your city location.

Track the satellite on the map from your city or location and see movement details for azimuth, elevation, latitude, longitude, range, height, and movement on the map or in text.







IsCatalogInMostPopularTable: catalog: 45613, numindb: 8
Update: records affected: 1



GetName: 45613 CZ-11 DEB

Hit Count: updated at: Sat, 04 Jul 2020 01:50:51 GMT